FW8985 Weather Reports


Display with metric or nautical units.
time (UTC)temp
F
wind
direction
speed
MPH
gust
MPH
rain 1hr
in
rain 24hr
in
rain mn
in
humidity
%
barometer
mb
20260503191034 67 211 3.0 9.0 0.00 0.00 0.00 37 1017.2
20260503190532 67 225 1.0 7.0 0.00 0.00 0.00 34 1017.1
20260503190043 67 187 2.0 7.0 0.00 0.00 0.00 34 1017.4
20260503185531 67 272 1.0 4.0 0.00 0.00 0.00 34 1017.5
20260503185035 67 346 0.0 8.0 0.00 0.00 0.00 36 1017.4
20260503184552 67 93 1.0 9.0 0.00 0.00 0.00 35 1017.5
20260503184032 67 249 5.0 9.0 0.00 0.00 0.00 32 1017.6
20260503183532 67 179 2.0 7.0 0.00 0.00 0.00 35 1017.7
20260503183102 67 285 2.0 6.0 0.00 0.00 0.00 34 1017.8
20260503182534 66 302 1.0 7.0 0.00 0.00 0.00 35 1017.9
20260503182033 66 207 3.0 9.0 0.00 0.00 0.00 35 1017.9
20260503181547 66 189 4.0 9.0 0.00 0.00 0.00 32 1018.0
20260503181034 66 163 4.0 9.0 0.00 0.00 0.00 31 1018.0
20260503180534 65 263 2.0 9.0 0.00 0.00 0.00 35 1018.0
20260503180047 65 199 5.0 9.0 0.00 0.00 0.00 28 1018.1
20260503175532 66 202 2.0 7.0 0.00 0.00 0.00 34 1018.2
20260503175031 65 152 1.0 7.0 0.00 0.00 0.00 34 1018.2
20260503174543 65 217 1.0 6.0 0.00 0.00 0.00 38 1018.3
20260503174032 66 99 1.0 4.0 0.00 0.00 0.00 34 1018.2
20260503173532 65 161 1.0 6.0 0.00 0.00 0.00 36 1018.3
20260503173108 65 262 1.0 8.0 0.00 0.00 0.00 38 1018.5
20260503172535 64 271 2.0 9.0 0.00 0.00 0.00 35 1018.5
20260503172031 64 177 5.0 9.0 0.00 0.00 0.00 34 1018.7
20260503171545 64 182 2.0 6.0 0.00 0.00 0.00 34 1018.8
20260503171034 64 145 2.0 5.0 0.00 0.00 0.00 43 1018.7
20260503170534 64 84 1.0 6.0 0.00 0.00 0.00 38 1018.8
20260503150534 59 80 3.0 8.0 0.00 0.00 0.00 48 1020.0
20260503150110 59 159 3.0 8.0 0.00 0.00 0.00 48 1020.0
20260503131037 52 293 0.0 2.0 0.00 0.00 0.00 72 1020.0
20260503130536 51 74 0.0 4.0 0.00 0.00 0.00 73 1020.0
20260503120106 40 0 0.0 0.0 0.00 0.00 0.00 95 1019.7
20260503110533 36 0 0.0 0.0 0.00 0.00 0.00 94 1019.2
20260503081547 40 0 0.0 2.0 0.00 0.00 0.00 91 1017.4
20260503081031 40 0 1.0 2.0 0.00 0.00 0.00 91 1017.4
20260503080538 40 0 0.0 0.0 0.00 0.00 0.00 91 1017.2
20260503072533 40 0 0.0 0.0 0.00 0.00 0.00 90 1017.0
20260503072034 40 0 0.0 0.0 0.00 0.00 0.00 89 1016.9
20260503071545 40 0 0.0 0.0 0.00 0.00 0.00 89 1016.9
20260503071033 40 0 0.0 0.0 0.00 0.00 0.00 88 1016.7
20260503070534 41 0 0.0 0.0 0.00 0.00 0.00 88 1016.8
20260503055029 42 0 0.0 0.0 0.00 0.00 0.00 87 1016.6
20260503054545 42 0 0.0 0.0 0.00 0.00 0.00 86 1016.6
20260503054035 42 0 0.0 0.0 0.00 0.00 0.00 86 1016.5
20260503053537 43 0 0.0 0.0 0.00 0.00 0.00 85 1016.6
20260503053045 43 0 0.0 0.0 0.00 0.00 0.00 85 1016.5
20260503052531 43 0 0.0 0.0 0.00 0.00 0.00 84 1016.6
20260503052031 44 0 0.0 0.0 0.00 0.00 0.00 83 1016.6
20260503051544 44 0 0.0 0.0 0.00 0.00 0.00 84 1016.6
20260503051033 44 0 0.0 0.0 0.00 0.00 0.00 85 1016.5
20260503050530 44 0 0.0 0.0 0.00 0.00 0.00 85 1016.6
20260503050045 43 0 0.0 1.0 0.00 0.00 0.00 85 1016.6
20260503045533 43 0 0.0 2.0 0.00 0.00 0.00 85 1016.5
20260503045029 44 0 0.0 2.0 0.00 0.00 0.00 83 1016.5
20260503044545 44 33 0.0 2.0 0.00 0.00 0.00 82 1016.5
20260503044030 44 0 0.0 2.0 0.00 0.00 0.00 82 1016.4
20260503043530 45 0 0.0 2.0 0.00 0.00 0.00 81 1016.3
20260503043044 45 330 0.0 3.0 0.00 0.00 0.00 80 1016.3
20260503042533 46 0 1.0 4.0 0.00 0.00 0.00 79 1016.3
20260503042034 46 257 1.0 4.0 0.00 0.00 0.00 80 1016.1
20260503041553 46 290 1.0 2.0 0.00 0.00 0.00 78 1016.2
20260503041031 47 274 1.0 3.0 0.00 0.00 0.00 76 1016.1
20260503040530 47 274 1.0 3.0 0.00 0.00 0.00 75 1016.1
20260503040055 47 274 1.0 3.0 0.00 0.00 0.00 75 1016.0
20260503035533 46 285 1.0 2.0 0.00 0.00 0.00 76 1015.9
20260503035033 46 292 1.0 2.0 0.00 0.00 0.00 78 1015.9
20260503034558 47 292 1.0 2.0 0.00 0.00 0.00 76 1015.8
20260503034034 47 292 0.0 2.0 0.00 0.00 0.00 77 1015.7
20260503033533 46 292 1.0 3.0 0.00 0.00 0.00 74 1015.6
20260503033047 46 292 1.0 3.0 0.00 0.00 0.00 76 1015.6
20260503032533 46 304 0.0 2.0 0.00 0.00 0.00 75 1015.6
20260503032033 46 305 1.0 2.0 0.00 0.00 0.00 77 1015.6
20260503031544 47 311 1.0 2.0 0.00 0.00 0.00 76 1015.6
20260503031034 47 0 0.0 2.0 0.00 0.00 0.00 74 1015.6
20260503030534 47 0 0.0 1.0 0.00 0.00 0.00 73 1015.5
20260503030053 48 0 0.0 2.0 0.00 0.00 0.00 72 1015.5
20260503025533 49 0 0.0 2.0 0.00 0.00 0.00 72 1015.4
20260503025033 49 270 0.0 2.0 0.00 0.00 0.00 73 1015.4
20260503024546 50 270 1.0 2.0 0.00 0.00 0.00 71 1015.4
20260503024031 50 270 0.0 2.0 0.00 0.00 0.00 69 1015.3
20260503023535 50 0 1.0 3.0 0.00 0.00 0.00 67 1015.2
20260503023043 50 270 1.0 3.0 0.00 0.00 0.00 67 1015.3
20260503022533 50 256 1.0 2.0 0.00 0.00 0.00 65 1015.3
20260503022036 50 0 1.0 2.0 0.00 0.00 0.00 64 1015.2
20260503021546 50 256 0.0 2.0 0.00 0.00 0.00 64 1015.1
20260503021034 50 0 0.0 2.0 0.00 0.00 0.00 65 1015.1
20260503020533 50 254 1.0 3.0 0.00 0.00 0.00 64 1015.1
20260503020047 51 252 1.0 3.0 0.00 0.00 0.00 62 1015.0
20260503015533 51 242 1.0 3.0 0.00 0.00 0.00 60 1014.9
20260503015033 51 277 1.0 2.0 0.00 0.00 0.00 62 1014.7
20260503014549 52 269 0.0 2.0 0.00 0.00 0.00 60 1014.6
20260503014035 52 269 1.0 2.0 0.00 0.00 0.00 62 1014.5
20260503013534 52 258 1.0 2.0 0.00 0.00 0.00 59 1014.5
20260503013045 52 271 1.0 2.0 0.00 0.00 0.00 59 1014.4
20260503012531 53 0 0.0 2.0 0.00 0.00 0.00 58 1014.3
20260503012035 53 261 0.0 2.0 0.00 0.00 0.00 56 1014.3
20260503011545 53 343 0.0 2.0 0.00 0.00 0.00 55 1014.2
20260503011030 53 0 0.0 2.0 0.00 0.00 0.00 58 1014.1
20260503010533 54 242 0.0 2.0 0.00 0.00 0.00 56 1014.0
20260503010050 54 236 1.0 3.0 0.00 0.00 0.00 54 1014.0
20260503005533 55 267 1.0 3.0 0.00 0.00 0.00 56 1013.9
20260503005035 55 220 1.0 2.0 0.00 0.00 0.00 56 1013.7
20260503004543 56 252 1.0 4.0 0.00 0.00 0.00 55 1013.6
20260503004035 56 232 1.0 5.0 0.00 0.00 0.00 53 1013.5
20260503003533 56 0 1.0 5.0 0.00 0.00 0.00 54 1013.5
20260503003051 56 0 1.0 4.0 0.00 0.00 0.00 53 1013.4
20260503002533 57 0 1.0 4.0 0.00 0.00 0.00 52 1013.3
20260503002033 57 346 1.0 4.0 0.00 0.00 0.00 56 1013.2
20260503001601 57 221 1.0 7.0 0.00 0.00 0.00 53 1013.1
20260503001036 57 207 2.0 8.0 0.00 0.00 0.00 52 1012.9
20260503000535 57 279 1.0 8.0 0.00 0.00 0.00 53 1012.8
20260503000100 58 25 1.0 4.0 0.00 0.00 0.00 57 1012.8
20260502235536 58 315 1.0 3.0 0.00 0.00 0.00 53 1012.7
20260502235030 58 121 0.0 3.0 0.00 0.00 0.00 53 1012.6
20260502234545 58 72 0.0 4.0 0.00 0.00 0.00 54 1012.5
20260502234031 58 0 0.0 4.0 0.00 0.00 0.00 54 1012.3
20260502233533 58 63 0.0 4.0 0.00 0.00 0.00 49 1012.3
20260502233045 58 0 1.0 3.0 0.00 0.00 0.00 55 1012.2
20260502232533 58 33 0.0 3.0 0.00 0.00 0.00 55 1012.1
20260502232033 59 134 1.0 4.0 0.00 0.00 0.00 50 1012.1
20260502231555 59 257 0.0 4.0 0.00 0.00 0.00 55 1012.0
20260502231035 59 234 0.0 4.0 0.00 0.00 0.00 53 1012.0
20260502230604 59 0 1.0 7.0 0.00 0.00 0.00 49 1011.9
20260502230044 59 79 0.0 7.0 0.00 0.00 0.00 52 1011.9
20260502225534 60 111 0.0 4.0 0.00 0.00 0.00 54 1011.9
20260502225034 60 186 1.0 5.0 0.00 0.00 0.00 46 1011.9
20260502224552 60 342 2.0 5.0 0.00 0.00 0.00 52 1011.9
20260502224035 60 280 1.0 6.0 0.00 0.00 0.00 51 1011.8
20260502223534 60 184 1.0 6.0 0.00 0.00 0.00 49 1011.8
20260502223046 60 256 2.0 6.0 0.00 0.00 0.00 53 1011.8
20260502222535 61 131 1.0 6.0 0.00 0.00 0.00 61 1011.7
20260502222035 61 109 1.0 5.0 0.00 0.00 0.00 61 1011.7
20260502221546 61 224 1.0 4.0 0.00 0.00 0.00 60 1011.6
20260502221035 61 319 1.0 3.0 0.00 0.00 0.00 63 1011.6
20260502220536 62 262 0.0 3.0 0.00 0.00 0.00 59 1011.5
20260502220050 62 0 0.0 3.0 0.00 0.00 0.00 62 1011.5
20260502215535 61 0 1.0 3.0 0.00 0.00 0.00 58 1011.4
20260502215034 61 229 1.0 3.0 0.00 0.00 0.00 62 1011.2
20260502214544 61 134 1.0 3.0 0.00 0.00 0.00 66 1011.2
20260502214034 61 51 1.0 3.0 0.00 0.00 0.00 65 1011.2
20260502213535 61 207 0.0 2.0 0.00 0.00 0.00 60 1011.1
20260502213045 62 0 0.0 2.0 0.00 0.00 0.00 62 1011.0
20260502212535 62 123 1.0 2.0 0.00 0.00 0.00 62 1010.9
20260502212035 62 122 0.0 2.0 0.00 0.00 0.00 60 1010.9
20260502211548 62 124 1.0 2.0 0.00 0.00 0.00 61 1010.8
20260502211035 62 0 0.0 2.0 0.00 0.00 0.00 61 1010.8
20260502210531 62 267 0.0 1.0 0.00 0.00 0.00 58 1010.8
20260502210056 62 0 0.0 2.0 0.00 0.00 0.00 55 1011.0
20260502205535 62 0 0.0 4.0 0.00 0.00 0.00 53 1011.0
20260502205034 63 0 0.0 4.0 0.00 0.00 0.00 54 1010.9
20260502204546 63 45 2.0 4.0 0.00 0.00 0.00 53 1010.9
20260502204036 64 123 2.0 5.0 0.00 0.00 0.00 53 1010.9
20260502203536 64 58 1.0 5.0 0.00 0.00 0.00 53 1010.9
20260502203044 64 44 2.0 6.0 0.00 0.00 0.00 53 1011.0
20260502202534 63 40 2.0 6.0 0.00 0.00 0.00 55 1011.0
20260502202038 63 57 1.0 4.0 0.00 0.00 0.00 54 1011.1
20260502201542 63 69 0.0 3.0 0.00 0.00 0.00 60 1011.1
20260502201035 62 0 0.0 4.0 0.00 0.00 0.00 58 1011.1
20260502200535 62 250 1.0 4.0 0.00 0.00 0.00 61 1011.2
20260502200122 62 136 0.0 2.0 0.00 0.00 0.00 58 1011.3
20260502195536 62 136 0.0 3.0 0.00 0.00 0.00 59 1011.4
20260502195038 61 253 0.0 3.0 0.00 0.00 0.00 58 1011.5
20260502194550 61 249 0.0 3.0 0.00 0.00 0.00 63 1011.5
20260502194037 61 0 0.0 1.0 0.00 0.00 0.00 63 1011.5
20260502193538 62 0 0.0 1.0 0.00 0.00 0.00 62 1011.5
20260502193050 62 0 0.0 3.0 0.00 0.00 0.00 62 1011.6
20260502192534 61 0 0.0 3.0 0.00 0.00 0.00 61 1011.7
20260502192035 61 136 2.0 3.0 0.00 0.00 0.00 57 1011.7
20260502191543 61 0 0.0 3.0 0.00 0.00 0.00 59 1011.7